www.pogodaiklimat.ru

Погода и климат >> Архив погоды >> Беларусь >> Марьина Горка


ПОГОДА в Марьиной Горке

  • Прогноз погоды в Марьиной Горке
  • Монитор погоды в Марьиной Горке
  • Климат города

АРХИВ ПОГОДЫ в Марьиной Горке

Время (UTC), дата Ветер
(напр.,м/с)
 
Видим.   Явления Облачность Т
(С)
Тd
(С)
f
(%)
Тe
(С)
Тes
(С)
Комфортность P
(гПа)
Po
(гПа)
Тmin
(С)
Tmax
(С)
R
(мм)
R24
(мм)
S
(см)
18 12.09 ЮВ 2 18 км 10/0
[Ac und Cs]
+20.8 +15.4 71 +25 +25 комфорт 1002.4 982.2 +27.1
21 12.09 ЮЗ 2 13 км 9/0
[Ac und]
+18.4 +15.8 85 +20 +20 1002.8 982.4
00 13.09 ЮЗ 2 7000 м слабый ливневой дождь 9/6 600 м
[Cb cap Ac und]
+17.5 +17.0 97 +18 +18 1002.1 981.7
03 13.09 СЗ 3 6000 м дымка {ливн. осадки} 9/8 600 м
[Sc Ac und]
+16.0 +15.7 98 +15 +15 1002.1 981.6
06 13.09 СЗ 3 9000 м дымка {ливн. осадки} 9/8 600 м
[Sc Ac und]
+14.9 +13.9 94 +14 +14 1003.2 982.6 +14.8 0.6
09 13.09 З 5 11 км 10/8 600 м
[Cu Sc Ac und]
+15.3 +13.7 90 +14 +14 1005.2 984.6
12 13.09 СЗ 5 17 км 9/8 600 м
[Cu Sc Ac und]
+17.4 +12.1 71 +17 +17 1005.8 985.3
15 13.09 ЮЗ 4 17 км 8/4 600 м
[Cu Sc Ac und]
+16.7 +12.5 76 +16 +16 1005.9 985.3
18 13.09 ЮЗ 2 14 км 3/3 600 м
[Sc]
+13.7 +11.2 85 +13 +13 1006.1 985.3 +17.9
21 13.09 Ю 3 7000 м дымка 8/0
[Cs]
+11.8 +10.9 94 +10 +10 1005.4 984.5
00 14.09 ЮЗ 4 13 км 9/5 600 м
[Sc Ac und]
+14.2 +11.0 81 +13 +13 1003.0 982.3
03 14.09 З 5
{11}
13 км ясно +13.1 +10.3 83 +11 +11 1002.7 981.9
06 14.09 ЮЗ 4
{10}
15 км 8/0
[Ac und Ci fib]
+15.3 +10.7 74 +14 +15 1002.7 982.1 +11.5
09 14.09 ЮЗ 6-12
{12}
17 км 8/5 600 м
[Sc Ac und]
+16.7 +11.8 73 +16 +17 1003.1 982.6
12 14.09 ЮЗ 6-11
{13}
17 км 9/6 600 м
[Sc Ac und]
+17.9 +13.0 73 +17 +18 1003.7 983.3
15 14.09 ЮЗ 2
{11}
10 км {ливн. осадки} 9/8 600 м
[Sc Ac und]
+16.8 +15.3 91 +17 +17 1003.1 982.6
18 14.09 ЮЗ 3 12 км {ливн. осадки} 9/8 600 м
[Sc Ac und]
+17.1 +14.6 85 +17 +17 1001.9 981.5 +18.7 0.5
21 14.09 З 5 15 км {ливн. осадки} 5/0
[Ac und]
+17.4 +13.9 80 +17 +17 1002.5 982.1
00 15.09 ЮЗ 2 6000 м дымка {ливн. осадки} 9/5 600 м
[Sc Ac und]
+14.4 +14.1 98 +14 +14 1002.7 982.0
03 15.09 З 5 5000 м слабый ливневой дождь 9/6 600 м
[Cb cap Ac und]
+12.8 +12.0 95 +10 +10 1003.0 982.2
06 15.09 З 3
{10}
7000 м слабый ливневой дождь 9/6 600 м
[Cb cap Ac und]
+11.0 +10.4 96 +9 +9 1004.5 983.5 +10.9 4
09 15.09 З 6-12
{13}
15 км {ливн. осадки} 8/8 600 м
[Sc]
+13.4 +8.5 72 +11 +12 1006.4 985.6
12 15.09 З 8-15
{17}
19 км {ливн. осадки} 9/9 600 м
[Sc]
+14.4 +7.2 62 +12 +12 1008.9 988.1
15 15.09 З 6-11
{15}
17 км 6/5 600 м
[Sc Ac und]
+14.8 +8.1 64 +13 +13 1010.6 989.8
18 15.09 З 3
{11}
15 км 8/3 600 м
[Sc Ac und]
+12.4 +8.5 77 +11 +11 1013.4 992.3 +16.0 0.6
21 15.09 ЮЗ 1 10 км ясно +9.7 +8.0 89 +9 +9 1015.0 993.7
00 16.09 ЮЗ 1 9000 м дымка ясно +8.4 +7.5 94 +8 +8 1016.0 994.6
03 16.09 ЮЗ 2 6000 м дымка 6/0
[Ac und]
+7.1 +6.8 98 +5 +5 1017.0 995.5
06 16.09 ЮЗ 2 8000 м дымка 9/0
[Ac und]
+10.0 +9.2 95 +8 +9 1018.5 997.2 +6.9
09 16.09 З 3 20 км 9/4 600 м
[Cu med, cong Ac und Ci fib]
+15.8 +9.7 67 +15 +18 1019.3 998.4
12 16.09 ЮЗ 2 25 км 9/3 600 м
[Cu med, cong Ac und Cs]
+16.8 +9.2 61 +17 +20 1019.1 998.2
15 16.09 штиль 0 8000 м слабый дождь 10/0
[As op]
+14.4 +11.4 82 +14 +14 1019.1 998.1
18 16.09 Ю 2 7000 м дымка {дождь} 10/0
[As op]
+12.7 +11.8 94 +12 +12 1019.6 998.5 +18.1 1
21 16.09 В 1 7000 м дымка 9/4 600 м
[Sc Ac und]
+12.1 +11.2 94 +12 +12 1019.0 997.8
00 17.09 В 3 7000 м в посл. час ливневой дождь 9/8 600 м
[Sc Ac und]
+11.8 +11.0 95 +10 +10 1017.7 996.5
03 17.09 В 3 7000 м дымка 8/4 600 м
[Sc Ac und Ci fib]
+11.6 +10.8 95 +10 +10 1015.7 994.5
06 17.09 ЮВ 2 9000 м дымка 9/8 600 м
[Sc Ac und]
+11.8 +11.0 95 +11 +11 1014.6 993.5 +11.2 0.8
09 17.09 Ю 2 15 км 8/3 600 м
[Sc Ac und]
+17.4 +13.7 79 +18 +20 1013.5 992.8
12 17.09 ЮВ 2 17 км 8/3 600 м
[Cu Sc Ac und]
+20.6 +15.8 74 +24 +27 комфорт 1011.7 991.3
15 17.09 С 1 7000 м слабый ливневой дождь 9/8 600 м
[Cb cap Ac und]
+17.2 +16.1 93 +18 +18 1011.9 991.3
18 17.09 В 2 6000 м зарница {ливн. осадки} 9/8 600 м
[Cb cap Ac und]
+16.1 +15.8 98 +16 +16 1009.4 988.7 +21.5 3
21 17.09 В 4 6000 м гроза, ливневой дождь 9/8 600 м
[Cb cap Ac und]
+16.9 +16.5 97 +16 +16 1006.8 986.3
00 18.09 В 1 6000 м дымка {гроза, ливн. осадки} 9/8 600 м
[Sc Ac und]
+16.6 +16.3 98 +17 +17 1002.1 981.6
03 18.09 ЮЗ 4 7000 м дымка 4/3 600 м
[Sc Ac und]
+15.9 +14.9 94 +15 +15 1001.9 981.4
06 18.09 Ю 6-12
{14}
10 км 9/6 600 м
[Sc Ac und]
+14.6 +12.1 85 +13 +13 1001.6 981.0 +14.3 2
09 18.09 ЮЗ 8-14
{18}
15 км 9/9 600 м
[Sc]
+13.3 +9.4 77 +11 +11 1003.2 982.4
12 18.09 ЮЗ 8-15
{17}
13 км 9/9 800 м
[Sc]
+13.7 +9.2 74 +11 +11 1003.9 983.1
15 18.09 З 8-17
{19}
13 км 9/9 840 м
[Sc]
+14.0 +9.0 72 +12 +12 1003.9 983.2
18 18.09 З 9-17
{20}
12 км {ливн. осадки} 9/9 660 м
[Sc]
+12.9 +9.2 78 +10 +10 1004.9 984.1 +14.7 0.0
21 18.09 З 9-17
{21}
13 км 9/9 600 м
[Sc]
+11.2 +6.7 74 +8 +8 1008.7 987.6
00 19.09 З 6-11
{17}
12 км 9/9 660 м
[Sc]
+11.3 +8.3 82 +8 +8 1011.0 989.9
03 19.09 З 5
{11}
12 км 9/8 600 м
[Sc Ac und]
+10.4 +8.2 86 +7 +7 1013.5 992.3
06 19.09 З 3 15 км 1/1 300 м
[St]
+10.8 +8.7 87 +9 +10 1015.5 994.3 +8.9
09 19.09 З 3 17 км 6/5 600 м
[Cu med, cong Ci fib]
+14.4 +9.4 72 +14 +16 1017.0 996.0
12 19.09 СЗ 5 17 км 8/5 600 м
[Cu med, cong Ci fib]
+15.8 +9.2 65 +15 +16 1017.7 996.8
15 19.09 З 3 20 км 8/5 600 м
[Cu med, cong Ci fib]
+16.0 +8.2 60 +16 +16 1018.2 997.3

 

Местоположение метеостанции Марьина Горка (Минская область, Беларусь): широта 53.45 долгота 28.13 высота над уровнем моря 177 м.

В архиве по умолчанию представлена погода в Марьиной Горке за последнюю неделю. Архивные данные за месяц целиком и за предыдущие месяцы, начиная с января 2011 года, Вы можете получить, выбрав интересующий диапазон дат из раскрывающегося списка и нажав кнопку "Ввод!".

Внимание! Время в таблицах - всемирное. Для получения местного времени необходимо прибавить поправку, которая в Марьиной Горке равна 3 ч.

Смотрите также архив погоды в соседних городах и на ближайших метеорологических станциях:

Погода в Барановичах (Брестская область, Беларусь) (37 км)
Погода в Слуцке (Минская область, Беларусь) (61 км)
Погода в Минске (город Минск, Беларусь) (63 км)
Погода в Березино (Минская область, Беларусь) (71 км)
Погода в Бобруйске (Могилевская область, Беларусь) (72 км)
Погода в Кличеве (Могилевская область, Беларусь) (79 км)
Погода в Столбцах (Минская область, Беларусь) (93 км)
Погода в Борисове (Минская область, Беларусь) (94 км)
Погода в Октябре (Гомельская область, Беларусь) (104 км)
Погода в Воложине (Минская область, Беларусь) (128 км)

Пояснения к столбцам:

Ветер - указаны скорость ветра в м/с - средняя за 10 мин, порывы в срок и между сроками (в фигурных скобках) и направление, откуда дует ветер: С - северный, СВ - северо-восточный, В - восточный, ЮВ - юго-восточный, Ю - южный, ЮЗ - юго-западный, З - западный, СЗ - северо-западный.
Видимость - горизонтальная дальность видимости в метрах или километрах. При видимости от 1 до 10 км при отсутствии осадков обычно наблюдается дымка, при ухудшении видимости до 1 км и менее - туман. В сухую погоду видимость может ухудшаться дымом, пылью или мглою.
Явления - указаны атмосферные явления, наблюдавшиеся в срок или в последний час перед сроком; фигурными скобками обозначены явления, наблюдавшиеся между сроками (за 1-3 часа до срока); квадратными скобками обозначены град или гололедные отложения с указанием их диаметра в мм.
Облачность - указаны через наклонную черту общая и нижняя облачность в баллах и высота нижней границы облаков в метрах; квадратными скобками обозначены формы облаков: Ci - перистые, Cs - перисто-слоистые, Cc - перисто-кучевые, Ac - высококучевые, As - высокослоистые, Sc - слоисто-кучевые, Ns - слоисто-дождевые, Cu - кучевые, Cb - кучево-дождевые. Подробнее классификацию облаков см. в Атласе облаков (PDF).
T - Температура воздуха - температура, измеренная на высоте 2 м над землей.
Td - Температура точки росы - температура, при понижении до которой содержащийся в воздухе водяной пар достигнет насыщения.
f - Относительная влажность воздуха - влажноcть воздуха, измеренная на высоте 2 м над землей.
Te - Эффективная температура - температура, которую ощущает одетый по сезону человек в тени. Характеристика душности погоды. При расчете учитывается влияние влажности воздуха и скорости ветра на теплоощущения человека.
Tes - Эффективная температура на солнце - температура, которую ощущает человек, с поправкой на солнечный нагрев. Характеристика знойности погоды. Зависит от высоты солнца над горизонтом, облачности и скорости ветра. Ночью, в пасмурную погоду, а также при ветре 12 м/с и более поправка равна нулю.
P - Атмосферное давление - приведенное к уровню моря атмосферное давление.
Po - Атмосферное давление - измеренное на уровне метеостанции атмосферное давление.
Tmin - Минимальная температура - минимум температуры воздуха на высоте 2 м над землей.
Tmax - Максимальная температура - максимум температуры воздуха на высоте 2 м над землей.
R - Количество осадков - Количество выпавших осадков за период времени, мм. При наведении курсора мыши на число - период времени, за который выпало указанное количество осадков.
R24 - Количество осадков - Количество выпавших осадков за 24 часа, мм.
S - Снежный покров - Высота снежного покрова, см. При наведении курсора мыши на число - состояние снежного покрова и степень покрытия местности в баллах.